DELTA 1 DEB, 3123

Orbit data source: Space-Track

DELTA 1 DEB, 3123 is space debris in SSO originally from a launch on Fri, 10 Nov 1967 UTC launched from the Air Force Western Test Range (AFWTR). Debris objects in space refer to the collection of defunct objects orbiting the Earth. Examples of debris include non-operational satellites, rocket bodies, and fragments generated from explosions, collisions, or faulty payload assembly.

Loading next visibility...
Identifier
3123, 1967-114D
Orbit
SSO
Last TLE update
12 hours ago
Origin
Manufacturer
Unknown
Mission
Spacecraft
Bus & Motor
Unknown
Mass
Unknown
Launch date (UTC)
1967-11-10 (57 years ago)
Launch vehicle
Unknown
Launch site
Air Force Western Test Range (AFWTR)
Object type
Payload
Rocket body
Debris
Shape & HBR
Unknown
Radar Cross Section
Small (<0.1 m²)

Expand to show TLE details & history

TLE from 12 hours ago
0 DELTA 1 DEB
1 03123U 67114D   25129.29468654 -.00000034  00000-0  98537-4 0  9995
2 03123 102.4234 244.1433 0028024 287.6021  97.0477 12.48090134618371
Epoch: 2025-05-09T07:04Z
Definitive object data (Epoch: 2025-05-09T07:04:20.917Z)
Latitude
24.3714°
Longitude
-94.99602°
Altitude
1,477.872 km
Speed
7.125 km/s
True Right ascension
15h 53m 46s
True Declination
24° 15' 15"
Sunlit
Object was in full shadow at TLE epoch
Visualization TLE readout
Latitude
26.20934°
Longitude
-94.99346°
Altitude
1,479.168 km
Speed
7.124 km/s
Apparent Right ascension
15h 26m 59s
Apparent Declination
-2° 59' 16"
Sunlit
Object is in full shadow
Visualization observer readout
Local Sidereal Time
02:48:19
Azimuth
344.178° N
Elevation
-52.047°
Doppler factor
1
Orbital elements
Apogee altitude
1,492.077 km
Perigee altitude
1,448.09 km
Semi-major axis
7,848.22 km
Eccentricity
0.0028024
Inclination
102.4234°
RAAN
244.1433°
Arg. of periapsis
287.6021°
True anomaly
97.36627°
Mean anomaly
97.0477°
Eccentric anomaly
97.207°
Mean motion
3.12167 °/min
BSTAR
0.000098537
Orbital period
115.32 mins
Loading maneuver chart data...
Loading SW <> Apogee altitude chart data...
Loading historical data...
Loading historical data...
Loading historical data...
Loading historical data...
Loading historical data...
Loading historical data...
Loading historical data...
Other satellites on launch #114 in the year 1967 (1967-11-10 UTC)

DELTA 1 DEB Visibility forecast

Observer location: undefined°, undefined°

Span
Click to sort rows by Start time (UTC) header in descending order
Start Az.
Max El. time (UTC)
Max El. Az.
Max El.
End time (UTC)
End Az.
12 mins2025-05-09 19:08:29.786Z44.627° NE2025-05-09 19:14:29.786Z91.303° ESE22.371°2025-05-09 19:20:29.786Z141.507° SSE
15 mins2025-05-09 21:01:29.786Z13.142° NNE2025-05-09 21:08:29.786Z298.119° NW43.644°2025-05-09 21:16:29.786Z210.808° SW
8 mins2025-05-09 22:56:29.786Z341.954° N2025-05-09 23:00:29.786Z310.869° NW16.568°2025-05-09 23:04:29.786Z280.567° WNW
13 mins2025-05-10 06:10:29.786Z116.343° SE2025-05-10 06:16:29.786Z57.867° ENE31.608°2025-05-10 06:23:29.786Z357.337° N
14 mins2025-05-10 08:02:29.786Z186.28° SSW2025-05-10 08:09:29.786Z262.139° W37.934°2025-05-10 08:16:29.786Z329.604° NNW
|